Regional Weather Roundup
Issued by NWS

Home | Current Version | Previous Version | Text Only | Print | Product List | Glossary Off
Versions: 1 2 3 4 5 6 7 8 9 10 11 12 13 14 15 16 17 18 19 20 21 22 23 24 25 26 27 28 29 30 31 32 33 34 35 36 37 38 39 40 41 42 43 44 45 46 47 48 49 50

000
ASUS43 KMPX 241810
RWRMN
WEATHER ROUNDUP FOR MINNESOTA
NATIONAL WEATHER SERVICE TWIN CITIES/CHANHASSEN MN
1200 PM CST MON NOV 24 2014


NOTE: "FAIR" INDICATES FEW OR NO CLOUDS BELOW 12,000 FEET WITH NO
SIGNIFICANT WEATHER AND/OR OBSTRUCTIONS TO VISIBILITY. N/A MEANS
CURRENT SKY AND/OR WEATHER CONDITIONS ARE NOT AVAILABLE.

MNZ060>063-068>070-241900-
   Twin Cities Metro

CITY           SKY/WX    TMP DP  RH WIND       PRES   REMARKS
TWIN CITIES    CLOUDY    20  15  81 NW20      29.46R WCI   4
6HR MIN TEMP:  20; 6HR MAX TEMP:  24; 6HR PCP: TRACE;

ST PAUL        CLOUDY    22  17  81 W22G28    29.47R WCI   6
CRYSTAL        CLOUDY    22  14  71 NW18G29   29.46R WCI   7
BLAINE         CLOUDY    23  19  86 NW17G25   29.44S WCI   9
LAKEVILLE      CLOUDY    19  18  93 NW23      29.45R FOG     WCI   2
EDEN PRAIRIE   CLOUDY    21  14  74 NW20G25   29.47R WCI   6
6HR MIN TEMP:  21; 6HR MAX TEMP:  24;

SOUTH ST PAUL  CLOUDY    23  18  80 NW17G24   29.45R WCI   9
LAKE ELMO      CLOUDY    25  19  80 NW20G26   29.44R WCI  11
$$
MNZ001>005-007-008-013>017-022>024-027-028-241900-
   Northwest Minnesota

CITY           SKY/WX    TMP DP  RH WIND       PRES   REMARKS
BEMIDJI        LGT SNOW  11   6  81 NW17      29.59R WCI  -7
HALLOCK        MOSUNNY   10   3  72 N23G33    29.79S WCI -10
ROSEAU         PTSUNNY   12   7  79 N18       29.71R WCI  -5
WARROAD        LGT SNOW  10   7  85 NW14      29.69S WCI  -5
THIEF RVR FALL CLOUDY    10   3  72 NW21G28   29.71R WCI  -9
CROOKSTON      PTSUNNY   10   7  85 N25G31    29.77R WCI -10
FOSSTON        CLOUDY     9   3  78 NW21      29.67S HAZE    WCI -11
DETROIT LAKES  LGT SNOW   9   5  85 NW22G28   29.66R WCI -11
MOORHEAD       CLOUDY     9   7  92 N26G32    29.75R WCI -13
PARK RAPIDS    LGT SNOW  11   6  81 NW17G24   29.57R WCI  -6
$$
MNZ006-009>011-018-025>026-241900-
   North Central Minnesota

CITY           SKY/WX    TMP DP  RH WIND       PRES   REMARKS
BAUDETTE       LGT SNOW  13   7  77 N25G31    29.62R WCI  -7
FLAG ISLAND    CLOUDY    12   9  85 N20G25    29.67R WCI  -6
INTL FALLS     LGT SNOW  16   9  74 N21G26    29.54R WCI  -1
6HR MIN TEMP:  15; 6HR MAX TEMP:  21; 6HR PCP: TRACE;

WASKISH        LGT SNOW  12   9  85 NW9G20    29.61R WCI   0
BIG FORK       LGT SNOW  16  10  79 NW12G20   29.52R WCI   3
LONGVILLE      LGT SNOW  14  10  85 NW12G22   29.53R WCI   0
GRAND RAPIDS   CLOUDY    16  10  79 NW20G29   29.46R WCI  -1
CRANE LAKE     FLURRIES  18  12  79 NW12G17   29.50R WCI   5
ORR            FLURRIES  18  12  79 NW9       29.45R WCI   6
COOK           CLOUDY    18  14  86 NW6G20    29.45R WCI   9
$$
MNZ012-019>021-037-241900-
   Northeast Minnesota

CITY           SKY/WX    TMP DP  RH WIND       PRES   REMARKS
DULUTH         LGT SNOW  24  20  84 NW24G39   29.31R VSB 3/4 WCI   8
6HR MIN TEMP:  24; 6HR MAX TEMP:  32; 6HR PCP: TRACE;

ELY            FLURRIES  18  14  86 N13G22    29.39R WCI   4
HIBBING        CLOUDY    21  14  74 N21G31    29.44R WCI   5
EVELETH        CLOUDY    21  19  93 N12G26    29.42R WCI   9
DULUTH HARBOR  FLURRIES  30  25  80 NW15G24   29.37R WCI  19
TWO HARBORS    LGT SNOW  28  21  74 NW15G30   29.28R WCI  17
SILVER BAY     PTSUNNY   27  18  69 NW14G31   29.27R WCI  15
GRAND MARAIS     N/A     22  14  71 N29G52    29.19S WCI   4
G MARAIS ARPRT LGT SNOW  16  10  79 NW18G30   29.22R VSB 1   WCI  -1
$$
MNZ029>031-032-039>041-046>048-054>057-064-241900-
   West Central Minnesota

CITY           SKY/WX    TMP DP  RH WIND       PRES   REMARKS
FERGUS FALLS   LGT SNOW   9   1  72 NW26G35   29.71R WCI -13
WHEATON        LGT SNOW   9   3  78 NW20G29   29.74R WCI -11
MORRIS         LGT SNOW  10   7  85 NW28G36   29.65R WCI -11
ALEXANDRIA     CLOUDY    12   5  73 NW15G30   29.58S HAZE    WCI  -4
ELBOW LAKE       N/A      9   4  82 NW24G32   29.65S HAZE    WCI -12
WADENA         CLOUDY    10   5  79 NW17      29.59R WCI  -7
GLENWOOD       LGT SNOW  10   7  85 NW23G36   29.59R WCI -10
APPLETON       CLOUDY    12   7  79 NW25G36   29.68S WCI  -8
BENSON         FLURRIES  12   7  79 N29G40    29.63R WCI  -9
ORTONVILLE     CLOUDY    12   3  67 NW23G35   29.69S WCI  -7
MADISON        PTSUNNY   18  10  73 NW24G32   29.70R WCI   0
WILLMAR        HVY SNOW  14   9  79 NW28G40   29.60R VSB<1/4 WCI  -6
$$
MNZ033>034-036-042>043-049>051-058-059-241900-
   Central Minnesota

CITY           SKY/WX    TMP DP  RH WIND       PRES   REMARKS
ST CLOUD       CLOUDY    19  11  70 NW18G31   29.51R WCI   4
6HR MIN TEMP:  18; 6HR MAX TEMP:  22; 6HR PCP: TRACE;

SAUK CENTRE    CLOUDY    13   7  76 NW23      29.56R WCI  -6
PAYNESVILLE    CLOUDY    12   8  84 W22G29    29.56R FOG     WCI  -7
AITKIN         FLURRIES  21  12  68 NW15G24   29.46R WCI   8
PINE RIVER     FLURRIES  16  10  79 NW16G28   29.57R WCI   0
BRAINERD       LGT SNOW  16  11  80 NW18      29.51R WCI   0
STAPLES        FLURRIES  12   7  79 NW22      29.55S WCI  -7
LONG PRAIRIE   CLOUDY    12   7  79 W18G25    29.55R WCI  -5
LITTLE FALLS   LGT SNOW  18  10  73 NW14G20   29.53R WCI   4
LITCHFIELD     CLOUDY    18  12  79 NW18G32   29.54R WCI   2
BUFFALO        CLOUDY    18  13  79 W15G22    29.51S WCI   4
MAPLE LAKE     CLOUDY    19  15  84 NW21      29.52R FOG     WCI   2
$$
MNZ037-044-045-052-053-241900-
   East Central Minnesota

CITY           SKY/WX    TMP DP  RH WIND       PRES   REMARKS
PRINCETON      FLURRIES  21  14  73 NW18G28   29.47R WCI   6
MORA           CLOUDY    21  14  73 NW16G23   29.45S WCI   7
CAMBRIDGE      FLURRIES  23  14  68 NW14G30   29.44R WCI  11
RUSH CITY      CLOUDY    23  17  80 NW21G26   29.43R WCI   8
MOOSE LAKE     CLOUDY    25  19  80 N14G28    29.39R WCI  13
HINCKLEY       CLOUDY    27  19  74 NW10G24   29.41R WCI  17
CLOQUET        CLOUDY    25  19  80 NW23G33   29.36R WCI  10
MCGREGOR       CLOUDY    21  18  86 NW20G30   29.45R WCI   6
$$
MNZ071>073-080-081-089-090-097-098-241900-
   Southwest Minnesota

CITY           SKY/WX    TMP DP  RH WIND       PRES   REMARKS
MONTEVIDEO     LGT SNOW  12  10  92 N25G37    29.66R WCI  -8
GRANITE FALLS  LGT SNOW  14  10  81 NW22G33   29.67R WCI  -4
CANBY          FLURRIES  16  10  78 NW24G32   29.70R WCI  -2
MARSHALL       CLOUDY    16   7  67 NW26G37   29.65R WCI  -3
REDWOOD FALLS  FLURRIES  17   8  67 NW28G40   29.61R WCI  -2
OLIVIA         LGT SNOW  18  12  79 NW28G40   29.59R WCI  -1
PIPESTONE      LGT SNOW  18  12  79 NW22G30   29.64R WCI   0
WINDOM         FLURRIES  18  10  73 NW26G38   29.59R WCI  -1
WORTHINGTON    CLOUDY    19  12  73 NW21G28   29.62R WCI   3
JACKSON        CLOUDY    21  12  68 NW26G37   29.59R WCI   4
TRACY          FLURRIES  17  10  75 NW25G32   29.64R WCI  -1
SLAYTON        CLOUDY    19  12  74 NW31      29.61S WCI  -1
$$
MNZ065>067-074>077-082>085-091>093-241900-
   South Central Minnesota

CITY           SKY/WX    TMP DP  RH WIND       PRES   REMARKS
MANKATO        CLOUDY    18   9  68 NW30G37   29.52S WCI  -2
NEW ULM        LGT SNOW  16  10  79 NW25G36   29.58R WCI  -3
ST JAMES       FLURRIES  18  10  73 NW24G43   29.59R WCI   0
FAIRMONT       CLOUDY    18  10  73 NW24G31   29.56R WCI   0
GLENCOE        FLURRIES  19  15  82 NW21G29   29.52R WCI   3
FARIBAULT      CLOUDY    21  16  79 W15G29    29.48R WCI   8
OWATONNA       CLOUDY    19  16  86 W18G28    29.48R WCI   4
WASECA         CLOUDY    19  12  73 NW29G37   29.51R WCI   1
ALBERT LEA     CLOUDY    18  16  93 NW12G28   29.48R WCI   5
$$
MNZ078>079-086>088-094>096-241900-
   Southeast Minnesota

CITY           SKY/WX    TMP DP  RH WIND       PRES   REMARKS
ROCHESTER      CLOUDY    21  17  84 NW26G32   29.40R WCI   4
6HR MIN TEMP:  21; 6HR MAX TEMP:  28; 6HR PCP:  0.01;

RED WING       CLOUDY    25  19  80 NW13G22   29.41R WCI  13
STANTON        CLOUDY    24  18  78 W20G25    29.45R WCI   9
DODGE CENTER   CLOUDY    19  18  93 NW21G33   29.42R WCI   3
WINONA         LGT SNOW  30  27  86 NW14G24   29.38R WCI  20
AUSTIN         CLOUDY    18  14  86 NW26G33   29.45R WCI  -1
PRESTON        CLOUDY    21  17  86 NW25G33   29.40R WCI   4
$$
ABBREVIATIONS USED IN REMARKS
   TC - TEMPERATURES IN CELSIUS
  WCI - WIND CHILL INDEX
   HX - HEAT INDEX
  VSB - VISIBILITY
$$



USA.gov is the U.S. government's official web portal to all federal, state and local government web resources and services.